Regional Weather Roundup
Issued by NWS Raleigh/Durham, NC

Home | Current Version | Previous Version | Text Only | Print | Product List | Glossary On
Versions: 1 2 3 4 5 6 7 8 9 10 11 12 13 14 15 16 17 18 19 20 21 22 23 24 25 26 27 28 29 30 31 32 33 34 35 36 37 38 39 40 41 42 43 44 45 46 47 48 49 50
000
ASUS42 KRAH 180910
RWRRAH
NORTH CAROLINA WEATHER ROUNDUP
NATIONAL WEATHER SERVICE RALEIGH NC
500 AM EDT THU JUL 18 2019

NOTE: "FAIR" INDICATES FEW OR NO CLOUDS BELOW 12,000 FEET WITH NO
SIGNIFICANT WEATHER AND/OR OBSTRUCTIONS TO VISIBILITY.

NCZ001-053-055-056-065-067-181000-
WESTERN NORTH CAROLINA

CITY           SKY/WX    TMP DP  RH WIND       PRES   REMARKS
ASHEVILLE      MOCLDY    67  65  93 N3        30.08S FOG
JEFFERSON      NOT AVBL
HICKORY        FAIR      71  69  93 CALM      30.00S
WILKESBORO     NOT AVBL
RUTHERFORDTON  NOT AVBL
MOUNT AIRY     FAIR      73  69  90 CALM      30.01S
BOONE          CLOUDY    70  66  86 NW13      30.12R
$$

NCZ021-022-025-041-071-084-088-181000-
CENTRAL NORTH CAROLINA

CITY           SKY/WX    TMP DP  RH WIND       PRES   REMARKS
CHARLOTTE      MOCLDY    75  71  87 CALM      30.00S
GREENSBORO     FAIR      74  69  85 S8        29.98S
WINSTON-SALEM  FAIR      74  68  81 VRB3      30.00R
RALEIGH-DURHAM MOCLDY    75  73  93 SW6       29.97S
FORT BRAGG     FAIR      80  77  91 SW8       29.96F
FAYETTEVILLE   FAIR      78  76  93 SW8       29.97F
BURLINGTON     FAIR      77  67  71 SW6       29.97S
ROXBORO        NOT AVBL
HENDERSON      NOT AVBL
LOUISBURG      FAIR      73  72  94 CALM      29.99R
LAURINBURG     FAIR      77  75  93 SW5       29.99F FOG
$$

NCZ011-015-027-028-043-044-047-080-103-181000-
NORTHEASTERN NORTH CAROLINA

CITY           SKY/WX    TMP DP  RH WIND       PRES   REMARKS
ROCKY MT-WILSO FAIR      76  74  93 S6        29.96F
GREENVILLE     NOT AVBL
ELIZABETH CITY FAIR      81  75  82 SW12      29.95F
MANTEO         FAIR      80  77  88 SW12      29.98F
CAPE HATTERAS  FAIR      80  78  94 SW7       30.02S
$$

NCZ078-087-090-091-093-098-101-181000-
SOUTHEASTERN NORTH CAROLINA

CITY           SKY/WX    TMP DP  RH WIND       PRES   REMARKS
GOLDSBORO      FAIR      79  75  86 S6        29.96F
KINSTON        FAIR      79  76  91 S7        29.98F
KENANSVILLE    NOT AVBL
NEW BERN       FAIR      79  78  97 S7        30.00F
CHERRY POINT   FAIR      82  77  84 SW10      30.01F
BEAUFORT       MOCLDY    83  79  88 SW15      30.01F
JACKSONVILLE   FAIR      80  77  90 S6        29.99F
WILMINGTON     FAIR      82  77  84 SW7       30.00F
$$




USA.gov is the U.S. government's official web portal to all federal, state and local government web resources and services.